Tracking 17844 objects as of 27-August-2016
HD Live streaming from Space Station
objects crossing your sky now

COSMOS 2251 DEB

Track COSMOS 2251 DEB now!
10-day predictions


NORAD ID: 35970
Int'l Code: 1993-036AVL
Perigee: 681.4 km
Apogee: 737.6 km
Inclination: 74.0 °
Period: 98.8 minutes
Semi major axis: 7080 km
RCS: 0.0106 m2 (small)
Launch date: June 16, 1993
Source: Commonwealth of Independent States (former USSR) (CIS)
Launch site: PLESETSK MISSILE AND SPACE COMPLEX (PKMTR)

Note: This is SATELLITE DEBRIS
Your satellite tracking list
Your tracking list is empty





NASA's NSSDC Master Catalog

Two Line Element Set (TLE):
1 35970U 93036AVL 16235.77583443 +.00000762 +00000-0 +17359-3 0  9996
2 35970 074.0425 267.3328 0039683 157.3731 202.9195 14.57146382370060
Source of the keplerian elements: AFSPC

N2YO: 724